DW3195 Weather Reports


time (UTC)temp
F
wind
direction
speed
knots
gust
knots
rain 1hr
in
rain 24hr
in
rain mn
in
humidity
%
barometer
mb
20260904051505 66 0 0.0 0.0 0.00 0.00 0.00 95 923.4
20260904051005 66 0 0.0 0.0 0.00 0.00 0.00 95 923.5
20260904050505 67 0 0.0 0.0 0.00 0.00 0.00 95 923.6
20260904050005 67 0 0.0 0.0 0.00 0.00 0.00 95 923.7
20260904044505 66 0 0.0 0.0 0.00 0.00 0.00 95 923.7
20260904044005 66 0 0.0 0.0 0.00 0.00 0.00 95 923.6
20260904043505 67 0 0.0 0.0 0.00 0.00 0.00 95 923.6
20260904043005 67 0 0.0 0.0 0.00 0.00 0.00 95 923.6
20260904041504 67 0 0.0 0.0 0.00 0.00 0.00 95 923.7
20260904041005 67 0 0.0 0.0 0.00 0.00 0.00 95 923.7
20260904040505 67 0 0.0 0.0 0.00 0.00 0.00 95 923.7
20260904040004 67 0 0.0 0.0 0.00 0.00 0.00 95 923.7
20260904034504 67 0 0.0 0.0 0.00 0.00 0.00 95 923.8
20260904034005 67 0 0.0 0.0 0.00 0.00 0.00 95 923.8
20260904033504 67 0 0.0 0.0 0.00 0.00 0.00 95 923.8
20260904033004 67 0 0.0 0.0 0.00 0.00 0.00 95 923.8
20260904031505 68 0 0.0 0.0 0.00 0.00 0.00 95 923.9
20260904031005 68 0 0.0 0.0 0.00 0.00 0.00 95 923.9
20260904030504 68 0 0.0 0.0 0.00 0.00 0.00 95 923.9
20260904024004 68 0 0.0 0.0 0.00 0.00 0.00 95 923.9
20260904023504 69 0 0.0 0.0 0.00 0.00 0.00 95 923.9
20260904023004 69 0 0.0 0.0 0.00 0.00 0.00 95 923.9
20260904021005 69 0 0.0 0.0 0.00 0.00 0.00 95 923.9
20260904020504 69 0 0.0 0.0 0.00 0.00 0.00 95 923.8
20260904020004 69 0 0.0 0.0 0.00 0.00 0.00 94 923.7
20260904014504 69 0 0.0 0.0 0.00 0.00 0.00 94 923.7
20260904014004 70 0 0.0 0.0 0.00 0.00 0.00 94 923.8
20260904013505 70 0 0.0 0.0 0.00 0.00 0.00 94 923.8
20260904013004 70 0 0.0 0.0 0.00 0.00 0.00 93 923.5
20260904011504 70 0 0.0 0.0 0.00 0.00 0.00 93 923.5
20260904011004 70 0 0.0 0.0 0.00 0.00 0.00 93 923.3
20260904010504 70 0 0.0 0.0 0.00 0.00 0.00 92 923.2
20260904010004 71 0 0.0 0.0 0.00 0.00 0.00 92 923.0
20260904004504 71 0 0.0 0.0 0.00 0.00 0.00 91 922.9
20260904004004 72 0 0.0 0.0 0.00 0.00 0.00 92 922.9
20260904003504 72 0 0.0 0.0 0.00 0.00 0.00 91 922.3
20260904003004 72 0 0.0 0.0 0.00 0.00 0.00 90 922.0
20260904001004 74 0 0.0 0.0 0.00 0.00 0.00 89 921.3
20260904000505 74 0 0.0 0.0 0.00 0.00 0.00 89 921.4
20260904000005 75 0 0.0 0.0 0.00 0.00 0.00 89 921.4
20260903234505 76 0 0.0 0.0 0.00 0.00 0.00 87 920.0
20260903234006 77 0 0.0 0.0 0.00 0.00 0.00 86 919.5
20260903233505 77 0 0.0 0.0 0.00 0.00 0.00 86 919.5
20260903233005 78 0 0.0 0.0 0.00 0.00 0.00 85 918.8
20260903231506 80 0 0.0 0.0 0.00 0.00 0.00 82 918.0
20260903231005 81 0 0.0 0.0 0.00 0.00 0.00 81 918.0
20260903230505 82 0 0.0 0.0 0.00 0.00 0.00 79 918.3
20260903230006 83 0 0.0 0.0 0.00 0.00 0.00 77 918.7
20260903224505 87 0 0.0 0.0 0.00 0.00 0.00 69 922.2
20260903224006 88 0 0.0 0.0 0.00 0.00 0.00 68 923.1
20260903223505 88 0 0.0 0.0 0.00 0.00 0.00 67 924.2
20260903223006 89 0 0.0 0.0 0.00 0.00 0.00 66 924.2
20260903221005 92 0 0.0 0.0 0.00 0.00 0.00 58 926.7
20260903220005 93 0 0.0 0.0 0.00 0.00 0.00 56 927.2
20260903214005 93 0 0.0 0.0 0.00 0.00 0.00 53 927.6
20260903213005 94 0 0.0 0.0 0.00 0.00 0.00 49 927.7
20260903211505 93 0 0.0 0.0 0.00 0.00 0.00 57 927.2
20260903211005 93 0 0.0 0.0 0.00 0.00 0.00 54 927.4
20260903210505 92 0 0.0 0.0 0.00 0.00 0.00 51 927.8
20260903204504 92 0 0.0 0.0 0.00 0.00 0.00 50 928.0
20260903204005 92 0 0.0 0.0 0.00 0.00 0.00 50 928.1
20260903203005 92 0 0.0 0.0 0.00 0.00 0.00 50 928.1
20260903201505 92 0 0.0 0.0 0.00 0.00 0.00 51 928.3
20260903201005 92 0 0.0 0.0 0.00 0.00 0.00 49 928.2
20260903200505 92 0 0.0 0.0 0.00 0.00 0.00 54 928.1
20260903200005 91 0 0.0 0.0 0.00 0.00 0.00 51 928.3
20260903194505 87 0 0.0 0.0 0.00 0.00 0.00 61 927.4
20260903194005 86 0 0.0 0.0 0.00 0.00 0.00 65 926.7
20260903191505 91 0 0.0 0.0 0.00 0.00 0.00 50 928.5
20260903191005 90 0 0.0 0.0 0.00 0.00 0.00 52 928.6
20260903190004 90 0 0.0 0.0 0.00 0.00 0.00 53 928.6
20260903184505 89 0 0.0 0.0 0.00 0.00 0.00 56 928.6
20260903181505 90 0 0.0 0.0 0.00 0.00 0.00 55 928.4
20260903180504 89 0 0.0 0.0 0.00 0.00 0.00 56 928.8
20260903180005 88 0 0.0 0.0 0.00 0.00 0.00 61 928.3
20260903174504 85 0 0.0 0.0 0.00 0.00 0.00 68 925.7
20260903174004 85 0 0.0 0.0 0.00 0.00 0.00 70 924.8
20260903171005 89 0 0.0 0.0 0.00 0.00 0.00 58 928.6
20260903170504 89 0 0.0 0.0 0.00 0.00 0.00 58 928.7
20260903170004 88 0 0.0 0.0 0.00 0.00 0.00 61 928.8
20260903164504 90 0 0.0 0.0 0.00 0.00 0.00 56 929.3
20260903164004 89 0 0.0 0.0 0.00 0.00 0.00 57 929.0
20260903163505 89 0 0.0 0.0 0.00 0.00 0.00 58 929.1
20260903161504 86 0 0.0 0.0 0.00 0.00 0.00 64 928.4
20260903161004 86 0 0.0 0.0 0.00 0.00 0.00 62 929.2
20260903160504 86 0 0.0 0.0 0.00 0.00 0.00 59 929.3
20260903160004 86 0 0.0 0.0 0.00 0.00 0.00 62 929.2
20260903154503 86 0 0.0 0.0 0.00 0.00 0.00 62 928.7
20260903154004 87 0 0.0 0.0 0.00 0.00 0.00 59 929.1
20260903153504 87 0 0.0 0.0 0.00 0.00 0.00 67 927.8
20260903153004 86 0 0.0 0.0 0.00 0.00 0.00 67 928.0
20260903151504 86 0 0.0 0.0 0.00 0.00 0.00 67 923.2
20260903151003 86 0 0.0 0.0 0.00 0.00 0.00 64 927.9
20260903150503 85 0 0.0 0.0 0.00 0.00 0.00 66 928.1
20260903150005 85 0 0.0 0.0 0.00 0.00 0.00 68 924.4
20260903144505 84 0 0.0 0.0 0.00 0.00 0.00 75 923.4
20260903143505 83 0 0.0 0.0 0.00 0.00 0.00 77 920.0
20260903143005 82 0 0.0 0.0 0.00 0.00 0.00 75 922.0
20260903141005 80 0 0.0 0.0 0.00 0.00 0.00 82 919.7
20260903140505 79 0 0.0 0.0 0.00 0.00 0.00 86 919.2
20260903140005 78 0 0.0 0.0 0.00 0.00 0.00 88 919.4
20260903134006 76 0 0.0 0.0 0.00 0.00 0.00 95 922.6
20260903133006 75 0 0.0 0.0 0.00 0.00 0.00 96 926.0
20260903131505 73 0 0.0 0.0 0.00 0.00 0.00 96 925.8
20260903131005 72 0 0.0 0.0 0.00 0.00 0.00 96 925.6
20260903130505 70 0 0.0 0.0 0.00 0.00 0.00 96 925.2
20260903130006 68 0 0.0 0.0 0.00 0.00 0.00 96 924.8
20260903123505 63 0 0.0 0.0 0.00 0.00 0.00 95 923.6
20260903123005 62 0 0.0 0.0 0.00 0.00 0.00 95 923.5
20260903121505 62 0 0.0 0.0 0.00 0.00 0.00 95 923.4
20260903121004 62 0 0.0 0.0 0.00 0.00 0.00 95 923.3
20260903120505 61 0 0.0 0.0 0.00 0.00 0.00 95 923.3
20260903120005 61 0 0.0 0.0 0.00 0.00 0.00 95 923.2
20260903114005 60 0 0.0 0.0 0.00 0.00 0.00 95 922.9
20260903113504 60 0 0.0 0.0 0.00 0.00 0.00 95 922.8
20260903113006 60 0 0.0 0.0 0.00 0.00 0.00 95 922.7
20260903111505 60 0 0.0 0.0 0.00 0.00 0.00 95 922.6
20260903111005 60 0 0.0 0.0 0.00 0.00 0.00 95 922.6
20260903110505 60 0 0.0 0.0 0.00 0.00 0.00 95 922.5
20260903110004 60 0 0.0 0.0 0.00 0.00 0.00 95 922.4
20260903104504 60 0 0.0 0.0 0.00 0.00 0.00 95 922.3
20260903104005 60 0 0.0 0.0 0.00 0.00 0.00 95 922.3
20260903103504 60 0 0.0 0.0 0.00 0.00 0.00 95 922.3
20260903103005 60 0 0.0 0.0 0.00 0.00 0.00 95 922.3
20260903101505 60 0 0.0 0.0 0.00 0.00 0.00 95 922.2
20260903101004 60 0 0.0 0.0 0.00 0.00 0.00 95 922.1
20260903100504 60 0 0.0 0.0 0.00 0.00 0.00 95 922.1
20260903100005 60 0 0.0 0.0 0.00 0.00 0.00 95 922.1
20260903094504 61 0 0.0 0.0 0.00 0.00 0.00 95 922.1
20260903094005 61 0 0.0 0.0 0.00 0.00 0.00 95 922.2
20260903093005 61 0 0.0 0.0 0.00 0.00 0.00 95 922.2
20260903091504 61 0 0.0 0.0 0.00 0.00 0.00 95 922.2
20260903091005 61 0 0.0 0.0 0.00 0.00 0.00 95 922.2
20260903090504 61 0 0.0 0.0 0.00 0.00 0.00 95 922.2
20260903090004 61 0 0.0 0.0 0.00 0.00 0.00 95 922.2
20260903084004 61 0 0.0 0.0 0.00 0.00 0.00 95 922.2
20260903083504 61 0 0.0 0.0 0.00 0.00 0.00 95 922.2
20260903083004 62 0 0.0 0.0 0.00 0.00 0.00 95 922.2
20260903080505 62 0 0.0 0.0 0.00 0.00 0.00 95 922.3
20260903080004 62 0 0.0 0.0 0.00 0.00 0.00 95 922.4
20260903074504 62 0 0.0 0.0 0.00 0.00 0.00 95 922.4
20260903073504 62 0 0.0 0.0 0.00 0.00 0.00 95 922.4
20260903073004 62 0 0.0 0.0 0.00 0.00 0.00 95 922.5
20260903071504 62 0 0.0 0.0 0.00 0.00 0.00 95 922.4
20260903071004 62 0 0.0 0.0 0.00 0.00 0.00 95 922.3
20260903070504 62 0 0.0 0.0 0.00 0.00 0.00 95 922.3
20260903070004 62 0 0.0 0.0 0.00 0.00 0.00 95 922.4
20260903064504 62 0 0.0 0.0 0.00 0.00 0.00 95 922.4
20260903064004 62 0 0.0 0.0 0.00 0.00 0.00 95 922.3
20260903063503 62 0 0.0 0.0 0.00 0.00 0.00 95 922.4
20260903063004 62 0 0.0 0.0 0.00 0.00 0.00 95 922.4
20260903061504 62 0 0.0 0.0 0.00 0.00 0.00 95 922.4
20260903061004 63 0 0.0 0.0 0.00 0.00 0.00 95 922.5
20260903060504 63 0 0.0 0.0 0.00 0.00 0.00 95 922.5
20260903060004 63 0 0.0 0.0 0.00 0.00 0.00 95 922.5
20260903054006 63 0 0.0 0.0 0.00 0.00 0.00 95 922.7
20260903053505 63 0 0.0 0.0 0.00 0.00 0.00 95 922.6
20260903053006 63 0 0.0 0.0 0.00 0.00 0.00 95 922.6